Flag for Germany Weather past 2 weeks in Waren (Müritz), Mecklenburg-Western Pomerania, Germany

Now
61 °F

Partly sunny.


Feels Like: 61 °F
Forecast: 53 / 66 °F
Wind: 13 mph from Southwest

Location: Laage

Current Time: Jul 28, 2015 at 12:50:17 PM

Latest Report: Jul 28, 2015 at 12:00 PM


Visibility: N/A

Pressure: 29.50 "Hg

Humidity: 83%

Dew point: 55 °F

Location of Waren (Müritz)Location

Historic Weather in Waren (Müritz) — Graph

°F

Waren (Müritz) temperature yesterday

Maximum temperature yesterday: 64 °F (at 1:20 PM)
Minimum temperature yesterday: 54 °F (at 12:20 AM)
Average temperature yesterday: 60 °F

Past Weeks' High & Low Weather Summary

 TemperatureHumidityPressure
High82 °F (Jul 17, 6:20 PM)100% (Jul 14, 4:20 AM)30.09 "Hg (Jul 14, 4:20 AM)
Low48 °F (Jul 24, 4:20 AM)36% (Jul 24, 4:20 PM)29.45 "Hg (Jul 25, 3:20 PM)
Average63 °F75%29.85 "Hg
* Reported Jul 13 11:20 AM — Jul 28 11:20 AM, Waren (Müritz), Weather by CustomWeather, © 2015

Note: Actual official high and low records may vary slightly from our data, if they occured in-between our weather recording intervals... More about our weather records

Advertising

Waren (Müritz) weather history for previous 24 hours

 ConditionsComfort  
Time TempWeatherWind HumidityBarometerVisibility
11:20 AM
Tue, Jul 28
59 °FPartly sunny.15 mph88%29.50 "HgN/A
10:20 AM59 °FSprinkles. Partly sunny.14 mph88%29.50 "Hg4 mi
9:20 AM57 °FPartly sunny.13 mph94%29.50 "HgN/A
8:20 AM59 °FPartly sunny.14 mph88%29.47 "HgN/A
7:20 AM59 °FLight rain. Partly sunny.10 mph88%29.47 "HgN/A
6:20 AM59 °FPartly sunny.10 mph94%29.47 "HgN/A
5:20 AM59 °FPassing clouds.9 mph94%29.47 "HgN/A
4:20 AM59 °FLight rain. Passing clouds.9 mph94%29.47 "HgN/A
3:20 AM59 °FLight rain. Partly cloudy.8 mph94%29.47 "HgN/A
2:20 AM59 °FPassing clouds.9 mph94%29.47 "HgN/A
1:20 AM59 °FPassing clouds.7 mph94%29.50 "HgN/A
12:20 AM59 °FPartly cloudy.7 mph100%29.50 "HgN/A
11:20 PM
Mon, Jul 27
59 °FRain showers. Partly cloudy.8 mph94%29.50 "HgN/A
10:20 PM61 °FPartly cloudy.6 mph94%29.50 "HgN/A
9:20 PM61 °FBroken clouds.3 mph94%29.50 "HgN/A
8:20 PM61 °FPartly sunny.5 mph94%29.50 "HgN/A
7:20 PM61 °FRain showers. Partly sunny.7 mph94%29.50 "Hg4 mi
7:03 PM61 °FRain showers. Broken clouds.7 mph94%29.50 "Hg4 mi
6:55 PM61 °FRain showers. Broken clouds.7 mph94%29.50 "Hg2 mi
6:20 PM63 °FSprinkles. Partly sunny.2 mph94%29.50 "Hg5 mi
6:00 PM61 °FRain showers. Partly sunny.2 mph94%29.50 "Hg4 mi
5:20 PM64 °FScattered showers. Partly sunny.7 mph73%29.50 "Hg4 mi
5:00 PM64 °FBroken clouds.7 mph78%29.50 "HgN/A
4:20 PM64 °FBroken clouds.7 mph78%29.50 "HgN/A
3:20 PM59 °FScattered showers. Broken clouds.6 mph94%29.50 "Hg6 mi
2:56 PM64 °FSprinkles. Partly sunny.9 mph68%29.50 "Hg3 mi
2:20 PM64 °FPartly sunny.7 mph68%29.50 "HgN/A
1:20 PM64 °FBroken clouds.9 mph64%29.53 "HgN/A
12:20 PM63 °FPartly sunny.12 mph73%29.53 "HgN/A
Weather by CustomWeather, © 2015

See weather overviewHow to use our weather pages